Bookmark and Share
Track history (hours):
 

Tourist.f.b.terzo

Last reported at 2014-Apr-23 06:33 UTC. Time now 2014-Apr-23 07:24 UTC.
Position N 40°48' E 014°06'.

Length 53 m; draft 1.7 m.

Type: Ship. MMSI: 247048900.

NotesDate/timePositionNaut miles runAvg speedWind from/ knotsBaromVisibWave heightAir tempDewpointWater temp
2014-Apr-23 06:33N 40°48' E 014°06'8 8.2
2014-Apr-23 05:33N 40°46' E 013°56'4 4.0
2014-Apr-23 04:33N 40°46' E 014°01'5 5.3
2014-Apr-23 03:33N 40°49' E 014°07'6 6.5
2014-Apr-23 02:33N 40°46' E 013°60'3 2.6
2014-Apr-23 01:33N 40°46' E 013°56'8 7.6
2014-Apr-23 00:33N 40°47' E 014°06'2 1.7
2014-Apr-22 23:33N 40°46' E 014°04'7 7.3
2014-Apr-22 22:33N 40°45' E 013°54'0 0.0
2014-Apr-22 21:31N 40°45' E 013°54'0 0.0
2014-Apr-22 20:31N 40°45' E 013°54'0 0.0
2014-Apr-22 19:31N 40°45' E 013°54'0 0.0
2014-Apr-22 18:31N 40°45' E 013°54'0 0.0
2014-Apr-22 17:31N 40°45' E 013°54'0 0.0
2014-Apr-22 16:31N 40°45' E 013°54'0 0.0
2014-Apr-22 15:28N 40°45' E 013°54'0 0.0
2014-Apr-22 14:28N 40°45' E 013°54'0 0.0
2014-Apr-22 13:31N 40°45' E 013°54'0 0.0
2014-Apr-22 12:31N 40°45' E 013°54'0 0.0
2014-Apr-22 11:31N 40°45' E 013°54'0 0.0
2014-Apr-22 10:28N 40°45' E 013°54'0 0.0
2014-Apr-22 09:33N 40°45' E 013°54'7 6.9
2014-Apr-22 08:33N 40°46' E 014°03'4 3.5
2014-Apr-22 07:24N 40°49' E 014°07'0 0.0
2014-Apr-22 06:30N 40°49' E 014°07'5 4.9
2014-Apr-22 05:33N 40°47' E 014°02'3 3.3
2014-Apr-22 04:34N 40°46' E 013°58'7 6.8
2014-Apr-22 03:33N 40°49' E 014°06'4 3.5
2014-Apr-22 02:33N 40°46' E 014°03'7 6.6
2014-Apr-22 01:34N 40°45' E 013°54'8 7.7
2014-Apr-22 00:33N 40°46' E 014°05'1 1.1
2014-Apr-21 23:33N 40°47' E 014°06'9 8.8
2014-Apr-21 22:33N 40°45' E 013°55'0 0.0
2014-Apr-21 11:32N 40°45' E 013°54'0 0.0
2014-Apr-21 10:32N 40°45' E 013°54'0 0.0
2014-Apr-21 09:32N 40°45' E 013°54'0 0.0
2014-Apr-21 08:32N 40°45' E 013°54'0 0.0
2014-Apr-21 07:29N 40°45' E 013°54'0 0.0
2014-Apr-21 06:29N 40°45' E 013°54'0 0.0
2014-Apr-21 05:32N 40°45' E 013°54'0 0.0
2014-Apr-21 04:32N 40°45' E 013°54'0 0.0
2014-Apr-21 03:32N 40°45' E 013°54'0 0.0
2014-Apr-21 02:32N 40°45' E 013°54'0 0.0
2014-Apr-21 01:32N 40°45' E 013°54'0 0.0
2014-Apr-21 00:32N 40°45' E 013°54'0 0.0
2014-Apr-20 23:32N 40°45' E 013°54'0 0.0
2014-Apr-20 22:32N 40°45' E 013°54'0 0.0
2014-Apr-20 21:32N 40°45' E 013°54'0 0.0
2014-Apr-20 20:32N 40°45' E 013°54'0 0.0
2014-Apr-20 19:32N 40°45' E 013°54'0 0.0
2014-Apr-20 18:32N 40°45' E 013°54'0 0.0
2014-Apr-20 17:32N 40°45' E 013°54'0 0.0
2014-Apr-20 16:32N 40°45' E 013°54'0 0.0
2014-Apr-20 15:32N 40°45' E 013°54'0 0.0
2014-Apr-20 14:32N 40°45' E 013°54'0 0.0
2014-Apr-20 13:32N 40°45' E 013°54'0 0.0
2014-Apr-20 12:32N 40°45' E 013°54'0 0.0
2014-Apr-20 11:32N 40°45' E 013°54'0 0.0
2014-Apr-20 10:32N 40°45' E 013°54'0 0.0
2014-Apr-20 09:29N 40°45' E 013°54'0 0.0
2014-Apr-20 08:29N 40°45' E 013°54'0 0.0
2014-Apr-20 07:32N 40°45' E 013°54'0 0.0
2014-Apr-20 06:32N 40°45' E 013°54'0 0.0
2014-Apr-20 05:32N 40°45' E 013°54'0 0.0
2014-Apr-20 04:32N 40°45' E 013°54'0 0.0
2014-Apr-20 03:32N 40°45' E 013°54'0 0.0
2014-Apr-20 02:32N 40°45' E 013°54'0 0.0
2014-Apr-20 01:32N 40°45' E 013°54'0 0.0
2014-Apr-20 00:32N 40°45' E 013°54'0 0.0
2014-Apr-19 23:29N 40°45' E 013°54'0 0.0
2014-Apr-19 22:32N 40°45' E 013°54'0 0.0
2014-Apr-19 21:32N 40°45' E 013°54'0 0.0
2014-Apr-19 20:32N 40°45' E 013°54'0 0.0
2014-Apr-19 19:32N 40°45' E 013°54'0 0.0
2014-Apr-19 18:29N 40°45' E 013°54'0 0.0
2014-Apr-19 17:32N 40°45' E 013°54'0 0.0
2014-Apr-19 16:32N 40°45' E 013°54'0 0.0
2014-Apr-19 15:32N 40°45' E 013°54'0 0.0
2014-Apr-19 14:32N 40°45' E 013°54'0 0.0
2014-Apr-19 13:32N 40°45' E 013°54'0 0.0
2014-Apr-19 12:29N 40°45' E 013°54'0 0.0
2014-Apr-19 11:32N 40°45' E 013°54'0 0.0
2014-Apr-19 10:32N 40°45' E 013°54'6 5.7
2014-Apr-19 09:33N 40°46' E 014°02'5 5.1
2014-Apr-19 08:33N 40°49' E 014°07'0 0.3
2014-Apr-19 07:25N 40°49' E 014°07'0 0.0
2014-Apr-19 06:34N 40°49' E 014°07'8 7.9
2014-Apr-19 05:33N 40°46' E 013°57'3 3.2
2014-Apr-19 04:33N 40°47' E 014°02'5 5.0
2014-Apr-19 03:34N 40°49' E 014°07'5 5.3
2014-Apr-19 02:34N 40°47' E 014°01'3 3.3
2014-Apr-19 01:33N 40°46' E 013°57'7 7.5
2014-Apr-19 00:34N 40°48' E 014°06'2 1.8
2014-Apr-18 23:33N 40°46' E 014°05'8 7.9
2014-Apr-18 22:33N 40°45' E 013°55'0 0.0
2014-Apr-18 21:33N 40°45' E 013°54'0 0.0
2014-Apr-18 20:33N 40°45' E 013°54'0 0.0
2014-Apr-18 19:33N 40°45' E 013°54'0 0.0
2014-Apr-18 18:33N 40°45' E 013°54'0 0.0
2014-Apr-18 17:33N 40°45' E 013°54'0 0.0
2014-Apr-18 16:30N 40°45' E 013°54'0 0.0
2014-Apr-18 15:33N 40°45' E 013°54'0 0.0
2014-Apr-18 14:33N 40°45' E 013°54'0 0.0
2014-Apr-18 13:33N 40°45' E 013°54'0 0.0
2014-Apr-18 12:33N 40°45' E 013°54'0 0.0
2014-Apr-18 11:33N 40°45' E 013°54'0 0.0
2014-Apr-18 10:33N 40°45' E 013°54'5 4.8
2014-Apr-18 09:33N 40°46' E 014°00'6 5.8
2014-Apr-18 08:33N 40°49' E 014°07'0 0.0
2014-Apr-18 07:22N 40°49' E 014°07'3 4.2
2014-Apr-18 06:33N 40°46' E 014°05'0 0.1
2014-Apr-17 23:23N 40°46' E 014°05'8 9.0
2014-Apr-17 22:33N 40°45' E 013°55'0 0.4
2014-Apr-17 21:32N 40°45' E 013°54'0 0.0
2014-Apr-17 20:29N 40°45' E 013°54'0 0.0
2014-Apr-17 19:32N 40°45' E 013°54'0 0.0
2014-Apr-17 18:32N 40°45' E 013°54'0 0.0
2014-Apr-17 17:32N 40°45' E 013°54'0 0.0
2014-Apr-17 16:32N 40°45' E 013°54'0 0.0
2014-Apr-17 15:32N 40°45' E 013°54'0 0.0
2014-Apr-17 14:29N 40°45' E 013°54'0 0.0
2014-Apr-17 13:32N 40°45' E 013°54'0 0.0
2014-Apr-17 12:32N 40°45' E 013°54'1 1.1
2014-Apr-17 11:34N 40°45' E 013°56'9 8.6
2014-Apr-17 10:33N 40°49' E 014°06'1 1.4
2014-Apr-17 09:34N 40°48' E 014°06'1 1.3
2014-Apr-17 08:33N 40°46' E 014°05'0 0.4
2014-Apr-17 07:33N 40°47' E 014°06'9 8.5
2014-Apr-17 06:33N 40°45' E 013°54'6 5.8
2014-Apr-17 05:33N 40°46' E 014°02'5 4.9
2014-Apr-17 04:33N 40°49' E 014°07'5 5.5
2014-Apr-17 03:33N 40°46' E 014°01'5 5.2
2014-Apr-17 02:33N 40°45' E 013°54'7 6.9
2014-Apr-17 01:33N 40°46' E 014°03'4 4.0
2014-Apr-17 00:31N 40°49' E 014°07'5 5.0
2014-Apr-16 23:33N 40°47' E 014°02'6 5.9
2014-Apr-16 22:33N 40°45' E 013°54'0 0.0
2014-Apr-16 21:33N 40°45' E 013°54'0 0.0
2014-Apr-16 20:33N 40°45' E 013°54'0 0.0
2014-Apr-16 19:33N 40°45' E 013°54'0 0.0
2014-Apr-16 18:33N 40°45' E 013°54'0 0.0
2014-Apr-16 17:33N 40°45' E 013°54'0 0.0
2014-Apr-16 16:33N 40°45' E 013°54'0 0.0
2014-Apr-16 15:33N 40°45' E 013°54'0 0.0
2014-Apr-16 14:30N 40°45' E 013°54'0 0.0
2014-Apr-16 13:33N 40°45' E 013°54'0 0.0
2014-Apr-16 12:33N 40°45' E 013°54'0 0.0
2014-Apr-16 11:33N 40°45' E 013°54'6 6.4
2014-Apr-16 10:33N 40°46' E 014°03'5 4.4
2014-Apr-16 09:32N 40°49' E 014°07'5 5.5
2014-Apr-16 08:33N 40°46' E 014°02'5 5.3
2014-Apr-16 07:33N 40°49' E 014°07'6 6.2
2014-Apr-16 06:33N 40°46' E 013°60'4 4.1
2014-Apr-16 05:33N 40°45' E 013°55'7 6.7
2014-Apr-16 04:33N 40°46' E 014°04'4 4.1
2014-Apr-16 03:34N 40°49' E 014°07'7 6.8
2014-Apr-16 02:33N 40°47' E 013°59'2 2.4
2014-Apr-16 01:33N 40°45' E 013°56'8 7.5
2014-Apr-16 00:33N 40°47' E 014°06'1 1.2
2014-Apr-15 23:33N 40°46' E 014°04'8 7.6
2014-Apr-15 22:34N 40°45' E 013°55'0 0.1
2014-Apr-15 21:33N 40°45' E 013°54'0 0.0
2014-Apr-15 20:33N 40°45' E 013°54'0 0.0
2014-Apr-15 19:33N 40°45' E 013°54'0 0.0
2014-Apr-15 18:33N 40°45' E 013°54'0 0.0
2014-Apr-15 17:33N 40°45' E 013°54'0 0.0
2014-Apr-15 16:33N 40°45' E 013°54'0 0.0
2014-Apr-15 15:33N 40°45' E 013°54'0 0.0
2014-Apr-15 14:33N 40°45' E 013°54'0 0.0
2014-Apr-15 12:34N 40°45' E 013°54'0 0.0
2014-Apr-15 11:34N 40°45' E 013°54'0 0.0
2014-Apr-15 10:34N 40°45' E 013°54'4 4.4
2014-Apr-15 09:34N 40°46' E 014°00'6 6.2
2014-Apr-15 08:33N 40°49' E 014°07'3 3.0
2014-Apr-15 07:34N 40°47' E 014°06'1 1.2
2014-Apr-15 06:34N 40°48' E 014°06'1 1.5
2014-Apr-15 05:34N 40°46' E 014°05'3 1.5
2014-Apr-15 03:34N 40°46' E 014°02'5 5.4
2014-Apr-15 02:34N 40°49' E 014°07'6 6.0
2014-Apr-15 01:34N 40°46' E 014°00'2 2.5
2014-Apr-15 00:34N 40°46' E 013°57'7 6.9
2014-Apr-14 23:34N 40°47' E 014°06'1 0.7
2014-Apr-14 22:34N 40°46' E 014°05'8 8.3
2014-Apr-14 21:34N 40°45' E 013°54'0 0.0
2014-Apr-14 20:34N 40°45' E 013°54'0 0.0
2014-Apr-14 19:34N 40°45' E 013°54'0 0.0
2014-Apr-14 18:34N 40°45' E 013°54'0 0.0
2014-Apr-14 17:31N 40°45' E 013°54'0 0.0
2014-Apr-14 16:34N 40°45' E 013°54'0 0.0
2014-Apr-14 15:34N 40°45' E 013°54'0 0.0
2014-Apr-14 14:34N 40°45' E 013°54'0 0.0
2014-Apr-14 13:34N 40°45' E 013°54'0 0.0
2014-Apr-14 11:34N 40°45' E 013°54'0 0.0
2014-Apr-14 10:31N 40°45' E 013°54'0 0.0
2014-Apr-14 09:34N 40°45' E 013°54'0 0.1
2014-Apr-14 08:34N 40°45' E 013°55'7 7.3
2014-Apr-14 07:34N 40°46' E 014°04'  

Dump ship's entire track history

sailing weather and tide predictions

Tourist.f.b.terzo — IQAQ — position and weather